Regional Weather Roundup
Issued by NWS Charleston, SC

Current Version | Previous Version | Graphics & Text | Print | Product List | Glossary On
Versions: 1 2 3 4 5 6 7 8 9 10 11 12 13 14 15 16 17 18 19 20 21 22 23 24 25 26 27 28 29 30 31 32 33 34 35 36 37 38 39 40 41 42 43 44 45 46 47 48 49 50
000 ASUS42 KCHS 212110 RWRCHS REGIONAL WEATHER ROUNDUP NATIONAL WEATHER SERVICE CHARLESTON SC 500 PM EDT THU AUG 21 2014 NOTE: "FAIR" INDICATES FEW OR NO CLOUDS BELOW 12,000 FEET WITH NO SIGNIFICANT WEATHER AND/OR OBSTRUCTIONS TO VISIBILITY. NOT ALL STATIONS ARE QUALITY CONTROLLED BY THE NATIONAL WEATHER SERVICE. USE DATA WITH CAUTION...ESPECIALLY DEWPOINT OBSERVATIONS. SCZ027-030-031-034>040-042>050-212200- ...SOUTH CAROLINA... CITY SKY/WX TMP DP RH WIND PRES REMARKS N CHARLESTON MOSUNNY 96 73 47 N7 30.02S HX 105 WATERFRONT PRK N/A 95 N/A N/A W5 N/A FORT JOHNSON NOT AVBL MOUNT PLEASANT FAIR 95 73 49 N7 30.02S HX 105 JOHNS ISLAND PTCLDY 97 75 49 CALM 30.02S HX 109 PINOPOLIS N/A 95 75 52 NW3 29.97S HX 107 MONCKS CORNER N/A 93 77 59 CALM 30.03S HX 107 SUMMERVILLE FAIR 95 73 49 N5 30.03S HX 105 BEAUFORT MCAS MOSUNNY 96 73 47 E7 30.02S HX 105 BEAUFORT ARPT FAIR 95 75 52 N7 30.01F HX 107 HILTON HEAD IS MOSUNNY 97 73 46 SE3 30.03F HX 107 GEORGETOWN NOT AVBL WALTERBORO CLEAR 97 59 28 N6 30.03S HX 96 ORANGEBURG SUNNY 96 62 32 NE12 30.04S HX 97 BARNWELL FAIR 99 61 28 N10 30.03F HX 99 AIKEN FAIR 97 68 38 N3 30.08S HX 101 MANNING FAIR 97 70 41 N9 30.03R HX 103 KINGSTREE NOT AVBL COLUMBIA MOSUNNY 96 65 35 NE6 30.03F HX 98 SUMTER SUNNY 95 69 42 NW6 30.03S HX 100 FLORENCE SUNNY 95 66 38 NW7 30.02F HX 98 MYRTLE BEACH MOSUNNY 86 73 66 SE12 30.03 HX 93 N MYRTLE BEACH PTSUNNY 82 74 76 SE8 30.04F $$ GAZ063-065-086>088-099>101-113>116-118-119-134-136>141-150-212200- ...GEORGIA... CITY SKY/WX TMP DP RH WIND PRES REMARKS SAVANNAH ARPT MOSUNNY 96 70 42 W5 30.02F HX 102 HUNTER AAF SUNNY 96 71 45 NW8 30.01F HX 104 FORT STEWART SUNNY 97 69 38 VRB3 30.02F HX 103 STATESBORO NOT AVBL SYLVANIA CLEAR 97 70 41 N8 30.04F HX 103 CLAXTON FAIR 97 70 41 NE5 30.03F HX 103 THOMSON SUNNY 97 74 47 CALM 30.08F HX 107 AUGUSTA-BUSH SUNNY 98 62 30 N3 30.02F HX 99 AUGUSTA-DANIEL SUNNY 98 63 31 CALM 30.05F HX 100 SWAINSBORO MOCLDY 97 70 41 SW7 30.05S HX 103 VIDALIA N/A 97 70 41 N5 30.05S HX 103 ALMA SUNNY 97 69 40 NW8 30.03F HX 103 WAYCROSS SUNNY 100 70 37 N10 30.03F HX 107 JESUP N/A 99 70 39 NE7 30.03F HX 105 BRUNSWICK SUNNY 97 64 34 N3 30.03F HX 99 SAINT SIMONS MOSUNNY 97 68 38 VRB6 30.02F HX 102 $$ SCZ027-028-034-036>038-045-046-048>050-GAZ119-141-212200- ...LAKE AND SUPPLEMENTAL COASTAL OBSERVATIONS... STATION/POSITION TIME TEMP WIND PRES WAVE SWELL AIR SEA DIR/SP/G HT/PER HT/PER/DIR (UTC) (F) (DEG/KT/KT) (MB) (FT/S) (FT/S/D) UPR LAKE MARION NOT AVBL WINYAH BAY 2000 92 300/ 5 1016.0S LAKE MURRAY 2000 92 200/ 5/ 7 1016.6F ACE BASIN NERRS 2000 94 290/ 2 1017.0S FORT PULASKI 2100 92 330/ 7/ 8 1016.8F SAPELO ISLAND 2000 98 280/ 6 1018.0S $$ ANZ835-935-AMZ111-154-330-350-352-354-374-450-454-472-212200- ...C-MAN AND BUOY OBSERVATIONS... STATION/POSITION TIME TEMP WIND PRES WAVE SWELL AIR SEA DIR/SP/G HT/PER HT/PER/DIR (UTC) (F) (DEG/KT/KT) (MB) (FT/S) (FT/S/D) FOLLY BEACH CMAN 2000 87 210/ 11/ 12 1017.0F BUOY 41004 2100 84 85 260/ 6/ 8 1016.5R 2/ 4 2/ 4 BUOY 41008 2100 85 86 180/ 4/ 6 1016.8F 1/ 8 2/110/ 8 5E ST. MARYS GA 2100 85 N/A 1/11 FRYING PAN BUOY NOT AVBL BUOY 41025 2100 81 200/ 8/ 10 1016.6S 2/ 9 2/ 50/ 9 CAPE LOOKOUT NC 2000 81 260/ 9/ 10 1016.4F BUOY 41002 2037 81 83 250/ 8/ 8 1018.1R 2/ 5 2/230/ 5 BUOY 41010 2100 85 87 200/ 4/ 6 1018.5F 2/ 9 2/110/ 9 BUOY 41012 NOT AVBL ST AUGUSTINE FL 2100 83 110/ 8/ 9 1017.8F CAPERS NEARSHORE 2000 87 210/ 10/ 12 N/A FRIPP NEARSHORE NOT AVBL $$

USA.gov is the U.S. government's official web portal to all federal, state and local government web resources and services.